Time,TemperatureF,DewpointF,PressureIn,WindDirection,WindDirectionDegrees,WindSpeedMPH,WindSpeedGustMPH,Humidity,HourlyPrecipIn,Conditions,Clouds,dailyrainin,SoftwareType,DateUTC
2013-07-26 00:01:00,61.9,56.3,30.07,SE,138,0.0,0.0,82,0.00,,,0.00,Wunderground v.1.15,2013-07-26 04:01:00,
2013-07-26 00:02:00,61.8,56.2,30.07,SE,138,0.0,0.0,82,0.00,,,0.00,Wunderground v.1.15,2013-07-26 04:02:00,
2013-07-26 00:03:00,61.8,56.2,30.07,SE,138,0.0,0.0,82,0.00,,,0.00,Wunderground v.1.15,2013-07-26 04:03:00,
2013-07-26 00:04:00,61.8,56.2,30.07,SE,138,0.0,0.0,82,0.00,,,0.00,Wunderground v.1.15,2013-07-26 04:04:00,
2013-07-26 00:10:00,61.6,56.7,30.07,SE,138,0.0,0.0,84,0.00,,,0.00,Wunderground v.1.15,2013-07-26 04:10:00,
2013-07-26 00:16:00,61.3,56.4,30.07,SE,137,0.0,0.0,84,0.00,,,0.00,Wunderground v.1.15,2013-07-26 04:16:00,
2013-07-26 00:21:00,61.1,56.2,30.07,SE,138,0.0,0.0,84,0.00,,,0.00,Wunderground v.1.15,2013-07-26 04:21:00,
2013-07-26 00:26:00,60.9,56.4,30.07,SE,138,0.0,0.0,85,0.00,,,0.00,Wunderground v.1.15,2013-07-26 04:26:00,
2013-07-26 00:31:00,60.7,56.2,30.06,SE,138,0.0,0.0,85,0.00,,,0.00,Wunderground v.1.15,2013-07-26 04:31:00,
2013-07-26 00:36:00,60.6,56.4,30.06,SE,138,0.0,0.0,86,0.00,,,0.00,Wunderground v.1.15,2013-07-26 04:36:00,
2013-07-26 00:42:00,60.4,56.2,30.07,SE,138,0.0,0.0,86,0.00,,,0.00,Wunderground v.1.15,2013-07-26 04:42:00,
2013-07-26 00:48:00,60.4,56.5,30.06,SE,138,0.0,0.0,87,0.00,,,0.00,Wunderground v.1.15,2013-07-26 04:48:00,
2013-07-26 00:53:00,60.2,56.3,30.06,SE,138,0.0,0.0,87,0.00,,,0.00,Wunderground v.1.15,2013-07-26 04:53:00,
2013-07-26 00:59:00,60.0,56.1,30.06,SE,138,0.0,0.0,87,0.00,,,0.00,Wunderground v.1.15,2013-07-26 04:59:00,
2013-07-26 01:04:00,59.9,56.0,30.06,SE,138,0.0,0.0,87,0.00,,,0.00,Wunderground v.1.15,2013-07-26 05:04:00,
2013-07-26 01:09:00,59.8,56.2,30.06,SE,138,0.0,0.0,88,0.00,,,0.00,Wunderground v.1.15,2013-07-26 05:09:00,
2013-07-26 01:15:00,59.8,55.9,30.06,SE,138,0.0,0.0,87,0.00,,,0.00,Wunderground v.1.15,2013-07-26 05:15:00,
2013-07-26 01:21:00,59.6,56.0,30.05,SE,138,0.0,0.0,88,0.00,,,0.00,Wunderground v.1.15,2013-07-26 05:21:00,
2013-07-26 01:26:00,59.6,56.0,30.06,SE,138,0.0,0.0,88,0.00,,,0.00,Wunderground v.1.15,2013-07-26 05:26:00,
2013-07-26 01:32:00,59.5,55.9,30.05,SE,138,0.0,0.0,88,0.00,,,0.00,Wunderground v.1.15,2013-07-26 05:32:00,
2013-07-26 01:37:00,59.5,56.3,30.05,SE,138,0.0,0.0,89,0.00,,,0.00,Wunderground v.1.15,2013-07-26 05:37:00,
2013-07-26 01:43:00,59.4,56.2,30.05,SE,138,0.0,0.0,89,0.00,,,0.00,Wunderground v.1.15,2013-07-26 05:43:00,
2013-07-26 01:48:00,59.3,56.1,30.05,SE,138,0.0,0.0,89,0.00,,,0.00,Wunderground v.1.15,2013-07-26 05:48:00,
2013-07-26 01:53:00,59.3,56.1,30.05,SE,138,0.0,0.0,89,0.00,,,0.00,Wunderground v.1.15,2013-07-26 05:53:00,
2013-07-26 01:58:00,59.3,56.1,30.05,SSE,150,0.0,0.0,89,0.00,,,0.00,Wunderground v.1.15,2013-07-26 05:58:00,
2013-07-26 02:04:00,59.3,56.1,30.05,SSE,150,0.0,0.0,89,0.00,,,0.00,Wunderground v.1.15,2013-07-26 06:04:00,
2013-07-26 02:10:00,59.3,56.1,30.05,SSE,153,0.0,0.0,89,0.00,,,0.00,Wunderground v.1.15,2013-07-26 06:10:00,
2013-07-26 02:15:00,59.3,55.7,30.05,SSE,153,0.0,0.0,88,0.00,,,0.00,Wunderground v.1.15,2013-07-26 06:15:00,
2013-07-26 02:21:00,59.4,55.8,30.05,SSE,156,0.0,0.0,88,0.00,,,0.00,Wunderground v.1.15,2013-07-26 06:21:00,
2013-07-26 02:26:00,59.5,55.9,30.05,SSE,156,0.0,0.0,88,0.00,,,0.00,Wunderground v.1.15,2013-07-26 06:26:00,
2013-07-26 02:31:00,59.5,55.9,30.05,SSE,156,0.0,0.0,88,0.00,,,0.00,Wunderground v.1.15,2013-07-26 06:31:00,
2013-07-26 02:37:00,59.6,55.7,30.04,SSE,156,0.0,0.0,87,0.00,,,0.00,Wunderground v.1.15,2013-07-26 06:37:00,
2013-07-26 02:43:00,59.6,55.7,30.04,South,175,0.0,0.0,87,0.00,,,0.00,Wunderground v.1.15,2013-07-26 06:43:00,
2013-07-26 02:48:00,59.6,55.7,30.04,South,175,0.0,0.0,87,0.00,,,0.00,Wunderground v.1.15,2013-07-26 06:48:00,
2013-07-26 02:54:00,59.6,55.7,30.04,South,175,0.0,0.0,87,0.00,,,0.00,Wunderground v.1.15,2013-07-26 06:54:00,
2013-07-26 02:59:00,59.6,55.7,30.03,South,175,0.0,0.0,87,0.00,,,0.00,Wunderground v.1.15,2013-07-26 06:59:00,
2013-07-26 03:05:00,59.5,55.6,30.03,South,175,0.0,0.0,87,0.00,,,0.00,Wunderground v.1.15,2013-07-26 07:05:00,
2013-07-26 03:11:00,59.6,55.7,30.03,South,175,0.0,0.0,87,0.00,,,0.00,Wunderground v.1.15,2013-07-26 07:11:00,
2013-07-26 03:17:00,59.6,55.7,30.03,South,175,0.0,0.0,87,0.00,,,0.00,Wunderground v.1.15,2013-07-26 07:17:00,
2013-07-26 03:22:00,59.6,55.7,30.03,South,175,0.0,0.0,87,0.00,,,0.00,Wunderground v.1.15,2013-07-26 07:22:00,
2013-07-26 03:28:00,59.7,55.8,30.03,South,175,0.0,0.0,87,0.00,,,0.00,Wunderground v.1.15,2013-07-26 07:28:00,
2013-07-26 03:33:00,59.7,55.8,30.03,South,175,0.0,0.0,87,0.00,,,0.00,Wunderground v.1.15,2013-07-26 07:33:00,
2013-07-26 03:39:00,59.8,55.9,30.03,South,175,0.0,0.0,87,0.00,,,0.00,Wunderground v.1.15,2013-07-26 07:39:00,
2013-07-26 03:44:00,59.8,55.9,30.03,South,175,0.0,0.0,87,0.00,,,0.00,Wunderground v.1.15,2013-07-26 07:44:00,
2013-07-26 03:50:00,59.8,55.9,30.03,South,175,0.0,0.0,87,0.00,,,0.00,Wunderground v.1.15,2013-07-26 07:50:00,
2013-07-26 03:56:00,59.8,55.9,30.03,South,175,0.0,0.0,87,0.00,,,0.00,Wunderground v.1.15,2013-07-26 07:56:00,
2013-07-26 04:01:00,59.7,55.8,30.02,South,175,0.0,0.0,87,0.00,,,0.00,Wunderground v.1.15,2013-07-26 08:01:00,
2013-07-26 04:07:00,59.6,55.7,30.02,South,175,0.0,0.0,87,0.00,,,0.00,Wunderground v.1.15,2013-07-26 08:07:00,
2013-07-26 04:12:00,59.6,55.7,30.03,South,175,0.0,0.0,87,0.00,,,0.00,Wunderground v.1.15,2013-07-26 08:12:00,
2013-07-26 04:18:00,59.6,55.7,30.03,South,175,0.0,0.0,87,0.00,,,0.00,Wunderground v.1.15,2013-07-26 08:18:00,
2013-07-26 04:23:00,59.6,55.7,30.03,South,175,0.0,0.0,87,0.00,,,0.00,Wunderground v.1.15,2013-07-26 08:23:00,
2013-07-26 04:28:00,59.6,55.7,30.03,South,175,0.0,0.0,87,0.00,,,0.00,Wunderground v.1.15,2013-07-26 08:28:00,
2013-07-26 04:33:00,59.6,55.7,30.03,South,175,0.0,0.0,87,0.00,,,0.00,Wunderground v.1.15,2013-07-26 08:33:00,
2013-07-26 04:39:00,59.6,55.7,30.03,South,175,0.0,0.0,87,0.00,,,0.00,Wunderground v.1.15,2013-07-26 08:39:00,
2013-07-26 04:45:00,59.5,55.6,30.03,South,175,0.0,0.0,87,0.00,,,0.00,Wunderground v.1.15,2013-07-26 08:45:00,
2013-07-26 04:51:00,59.5,55.6,30.03,South,175,0.0,0.0,87,0.00,,,0.00,Wunderground v.1.15,2013-07-26 08:51:00,
2013-07-26 04:56:00,59.4,55.8,30.03,South,175,0.0,0.0,88,0.00,,,0.00,Wunderground v.1.15,2013-07-26 08:56:00,
2013-07-26 05:02:00,59.2,55.6,30.02,SE,131,0.0,0.0,88,0.00,,,0.00,Wunderground v.1.15,2013-07-26 09:02:00,
2013-07-26 05:07:00,59.1,55.5,30.02,South,182,0.0,0.0,88,0.00,,,0.00,Wunderground v.1.15,2013-07-26 09:07:00,
2013-07-26 05:12:00,59.1,55.5,30.03,South,184,0.0,1.0,88,0.00,,,0.00,Wunderground v.1.15,2013-07-26 09:12:00,
2013-07-26 05:18:00,59.0,55.4,30.03,South,184,0.0,1.0,88,0.00,,,0.00,Wunderground v.1.15,2013-07-26 09:18:00,
2013-07-26 05:24:00,59.0,55.4,30.03,South,184,0.0,0.0,88,0.00,,,0.00,Wunderground v.1.15,2013-07-26 09:24:00,
2013-07-26 05:29:00,58.9,55.4,30.03,South,184,0.0,0.0,88,0.00,,,0.00,Wunderground v.1.15,2013-07-26 09:29:00,
2013-07-26 05:35:00,58.9,55.4,30.03,South,184,0.0,0.0,88,0.00,,,0.00,Wunderground v.1.15,2013-07-26 09:35:00,
2013-07-26 05:41:00,58.9,55.4,30.03,South,184,0.0,0.0,88,0.00,,,0.00,Wunderground v.1.15,2013-07-26 09:41:00,
2013-07-26 05:47:00,58.8,55.3,30.04,South,185,0.0,0.0,88,0.00,,,0.00,Wunderground v.1.15,2013-07-26 09:47:00,
2013-07-26 05:52:00,58.8,55.6,30.04,South,184,0.0,0.0,89,0.00,,,0.00,Wunderground v.1.15,2013-07-26 09:52:00,
2013-07-26 05:58:00,58.7,55.5,30.04,South,184,0.0,0.0,89,0.00,,,0.00,Wunderground v.1.15,2013-07-26 09:58:00,
2013-07-26 06:03:00,58.7,55.2,30.04,South,184,0.0,0.0,88,0.00,,,0.00,Wunderground v.1.15,2013-07-26 10:03:00,
2013-07-26 06:09:00,58.6,55.1,30.04,South,185,0.0,0.0,88,0.00,,,0.00,Wunderground v.1.15,2013-07-26 10:09:00,
2013-07-26 06:14:00,58.5,55.3,30.04,South,184,0.0,0.0,89,0.00,,,0.00,Wunderground v.1.15,2013-07-26 10:14:00,
2013-07-26 06:20:00,58.4,55.2,30.04,South,184,0.0,0.0,89,0.00,,,0.00,Wunderground v.1.15,2013-07-26 10:20:00,
2013-07-26 06:25:00,58.3,55.1,30.04,South,184,0.0,0.0,89,0.00,,,0.00,Wunderground v.1.15,2013-07-26 10:25:00,
2013-07-26 06:30:00,58.2,55.3,30.04,South,184,0.0,0.0,90,0.00,,,0.00,Wunderground v.1.15,2013-07-26 10:30:00,
2013-07-26 06:36:00,58.2,55.3,30.04,South,184,0.0,0.0,90,0.00,,,0.00,Wunderground v.1.15,2013-07-26 10:36:00,
2013-07-26 06:41:00,58.2,55.3,30.04,South,184,0.0,0.0,90,0.00,,,0.00,Wunderground v.1.15,2013-07-26 10:41:00,
2013-07-26 06:47:00,58.1,55.2,30.04,South,184,0.0,0.0,90,0.00,,,0.00,Wunderground v.1.15,2013-07-26 10:47:00,
2013-07-26 06:52:00,58.2,55.3,30.04,South,185,0.0,0.0,90,0.00,,,0.00,Wunderground v.1.15,2013-07-26 10:52:00,
2013-07-26 06:57:00,58.2,55.3,30.03,South,184,0.0,0.0,90,0.00,,,0.00,Wunderground v.1.15,2013-07-26 10:57:00,
2013-07-26 07:03:00,58.3,55.4,30.03,South,184,0.0,0.0,90,0.00,,,0.00,Wunderground v.1.15,2013-07-26 11:03:00,
2013-07-26 07:08:00,58.4,55.5,30.03,South,184,0.0,0.0,90,0.00,,,0.00,Wunderground v.1.15,2013-07-26 11:08:00,
2013-07-26 07:13:00,58.5,55.6,30.03,South,184,0.0,0.0,90,0.00,,,0.00,Wunderground v.1.15,2013-07-26 11:13:00,
2013-07-26 07:19:00,58.6,55.7,30.03,South,184,0.0,0.0,90,0.00,,,0.00,Wunderground v.1.15,2013-07-26 11:19:00,
2013-07-26 07:24:00,58.8,55.9,30.03,South,184,0.0,0.0,90,0.00,,,0.00,Wunderground v.1.15,2013-07-26 11:24:00,
2013-07-26 07:30:00,59.0,56.1,30.03,South,184,0.0,0.0,90,0.00,,,0.00,Wunderground v.1.15,2013-07-26 11:30:00,
2013-07-26 07:35:00,59.2,56.0,30.03,South,184,0.0,0.0,89,0.00,,,0.00,Wunderground v.1.15,2013-07-26 11:35:00,
2013-07-26 07:41:00,59.5,56.3,30.03,South,184,0.0,0.0,89,0.00,,,0.00,Wunderground v.1.15,2013-07-26 11:41:00,
2013-07-26 07:47:00,59.7,56.5,30.03,South,184,0.0,0.0,89,0.00,,,0.00,Wunderground v.1.15,2013-07-26 11:47:00,
2013-07-26 07:52:00,59.8,56.2,30.04,South,184,0.0,0.0,88,0.00,,,0.00,Wunderground v.1.15,2013-07-26 11:52:00,
2013-07-26 07:58:00,60.1,56.5,30.04,South,169,0.0,0.0,88,0.00,,,0.00,Wunderground v.1.15,2013-07-26 11:58:00,
2013-07-26 08:04:00,60.4,56.8,30.03,South,169,0.0,0.0,88,0.00,,,0.00,Wunderground v.1.15,2013-07-26 12:04:00,
2013-07-26 08:09:00,60.8,57.2,30.04,South,169,0.0,0.0,88,0.00,,,0.00,Wunderground v.1.15,2013-07-26 12:09:00,
2013-07-26 08:15:00,61.3,57.4,30.04,South,173,0.0,0.0,87,0.00,,,0.00,Wunderground v.1.15,2013-07-26 12:15:00,
2013-07-26 08:21:00,62.0,57.8,30.04,South,173,0.0,0.0,86,0.00,,,0.00,Wunderground v.1.15,2013-07-26 12:21:00,
2013-07-26 08:26:00,62.7,57.5,30.03,ESE,117,0.0,2.0,83,0.00,,,0.00,Wunderground v.1.15,2013-07-26 12:26:00,
2013-07-26 08:32:00,63.3,58.0,30.04,ESE,117,0.0,0.0,83,0.00,,,0.00,Wunderground v.1.15,2013-07-26 12:32:00,
2013-07-26 08:38:00,64.1,57.8,30.03,SE,132,0.0,1.0,80,0.00,,,0.00,Wunderground v.1.15,2013-07-26 12:38:00,
2013-07-26 08:43:00,64.9,57.9,30.03,SSW,203,0.0,2.0,78,0.00,,,0.00,Wunderground v.1.15,2013-07-26 12:43:00,
2013-07-26 08:49:00,65.5,57.4,30.03,SE,140,1.0,4.0,75,0.00,,,0.00,Wunderground v.1.15,2013-07-26 12:49:00,
2013-07-26 08:54:00,65.8,57.7,30.03,SE,128,1.0,1.0,75,0.00,,,0.00,Wunderground v.1.15,2013-07-26 12:54:00,
2013-07-26 09:00:00,66.3,58.1,30.03,ESE,113,0.0,0.0,75,0.00,,,0.00,Wunderground v.1.15,2013-07-26 13:00:00,
2013-07-26 09:06:00,66.9,58.0,30.03,SSW,194,1.0,3.0,73,0.00,,,0.00,Wunderground v.1.15,2013-07-26 13:06:00,
2013-07-26 09:11:00,67.2,57.9,30.03,SSE,168,1.0,1.0,72,0.00,,,0.00,Wunderground v.1.15,2013-07-26 13:11:00,
2013-07-26 09:17:00,67.7,58.7,30.03,WSW,249,0.0,1.0,73,0.00,,,0.00,Wunderground v.1.15,2013-07-26 13:17:00,
2013-07-26 09:22:00,68.0,58.2,30.03,South,173,1.0,2.0,71,0.00,,,0.00,Wunderground v.1.15,2013-07-26 13:22:00,
2013-07-26 09:28:00,68.5,58.7,30.03,South,173,1.0,2.0,71,0.00,,,0.00,Wunderground v.1.15,2013-07-26 13:28:00,
2013-07-26 09:33:00,68.8,58.6,30.03,East,88,0.0,0.0,70,0.00,,,0.00,Wunderground v.1.15,2013-07-26 13:33:00,
2013-07-26 09:39:00,69.4,59.6,30.03,SE,136,0.0,0.0,71,0.00,,,0.00,Wunderground v.1.15,2013-07-26 13:39:00,
2013-07-26 09:44:00,70.2,59.6,30.03,South,184,0.0,1.0,69,0.00,,,0.00,Wunderground v.1.15,2013-07-26 13:44:00,
2013-07-26 09:50:00,70.3,59.2,30.03,South,180,0.0,0.0,68,0.00,,,0.00,Wunderground v.1.15,2013-07-26 13:50:00,
2013-07-26 09:56:00,70.7,60.0,30.03,South,180,0.0,1.0,69,0.00,,,0.00,Wunderground v.1.15,2013-07-26 13:56:00,
2013-07-26 10:01:00,70.8,59.7,30.02,South,175,1.0,3.0,68,0.00,,,0.00,Wunderground v.1.15,2013-07-26 14:01:00,
2013-07-26 10:07:00,70.8,59.7,30.03,SW,215,1.0,3.0,68,0.00,,,0.00,Wunderground v.1.15,2013-07-26 14:07:00,
2013-07-26 10:12:00,70.8,60.1,30.02,SSW,200,1.0,1.0,69,0.00,,,0.00,Wunderground v.1.15,2013-07-26 14:12:00,
2013-07-26 10:18:00,71.0,60.3,30.03,SSW,202,1.0,5.0,69,0.00,,,0.00,Wunderground v.1.15,2013-07-26 14:18:00,
2013-07-26 10:23:00,70.9,59.8,30.03,South,178,1.0,1.0,68,0.00,,,0.00,Wunderground v.1.15,2013-07-26 14:23:00,
2013-07-26 10:29:00,70.8,59.3,30.03,SSW,195,1.0,3.0,67,0.00,,,0.00,Wunderground v.1.15,2013-07-26 14:29:00,
2013-07-26 10:35:00,71.1,60.4,30.03,SE,143,1.0,2.0,69,0.00,,,0.00,Wunderground v.1.15,2013-07-26 14:35:00,
2013-07-26 10:40:00,71.5,59.5,30.02,SSW,195,0.0,0.0,66,0.00,,,0.00,Wunderground v.1.15,2013-07-26 14:40:00,
2013-07-26 10:46:00,71.7,59.7,30.02,ENE,63,1.0,3.0,66,0.00,,,0.00,Wunderground v.1.15,2013-07-26 14:46:00,
2013-07-26 10:51:00,71.8,59.8,30.02,SSE,167,1.0,1.0,66,0.00,,,0.00,Wunderground v.1.15,2013-07-26 14:51:00,
2013-07-26 10:57:00,71.9,59.9,30.02,SSW,207,0.0,1.0,66,0.00,,,0.00,Wunderground v.1.15,2013-07-26 14:57:00,
2013-07-26 11:03:00,71.8,60.7,30.02,South,181,1.0,1.0,68,0.00,,,0.00,Wunderground v.1.15,2013-07-26 15:03:00,
2013-07-26 11:09:00,72.1,60.5,30.02,SSE,160,1.0,4.0,67,0.00,,,0.00,Wunderground v.1.15,2013-07-26 15:09:00,
2013-07-26 11:14:00,72.6,60.2,30.02,West,268,1.0,3.0,65,0.00,,,0.00,Wunderground v.1.15,2013-07-26 15:14:00,
2013-07-26 11:20:00,72.7,60.3,30.02,South,187,2.0,5.0,65,0.00,,,0.00,Wunderground v.1.15,2013-07-26 15:20:00,
2013-07-26 11:26:00,73.0,61.0,30.02,SSW,196,2.0,5.0,66,0.00,,,0.00,Wunderground v.1.15,2013-07-26 15:26:00,
2013-07-26 11:31:00,73.5,59.7,30.02,SSW,192,1.0,4.0,62,0.00,,,0.00,Wunderground v.1.15,2013-07-26 15:31:00,
2013-07-26 11:37:00,73.6,60.7,30.02,SW,221,2.0,4.0,64,0.00,,,0.00,Wunderground v.1.15,2013-07-26 15:37:00,
2013-07-26 11:42:00,73.8,60.4,30.02,WSW,251,1.0,2.0,63,0.00,,,0.00,Wunderground v.1.15,2013-07-26 15:42:00,
2013-07-26 11:48:00,74.2,61.2,30.01,SSW,212,2.0,3.0,64,0.00,,,0.00,Wunderground v.1.15,2013-07-26 15:48:00,
2013-07-26 11:54:00,74.8,60.4,30.01,WNW,287,1.0,2.0,61,0.00,,,0.00,Wunderground v.1.15,2013-07-26 15:54:00,
2013-07-26 11:59:00,75.0,61.1,30.01,SSW,212,2.0,3.0,62,0.00,,,0.00,Wunderground v.1.15,2013-07-26 15:59:00,
2013-07-26 12:05:00,74.5,59.2,30.01,South,182,2.0,6.0,59,0.00,,,0.00,Wunderground v.1.15,2013-07-26 16:05:00,
2013-07-26 12:10:00,74.6,61.2,30.01,West,259,3.0,3.0,63,0.00,,,0.00,Wunderground v.1.15,2013-07-26 16:10:00,
2013-07-26 12:16:00,75.2,60.8,30.01,South,171,2.0,4.0,61,0.00,,,0.00,Wunderground v.1.15,2013-07-26 16:16:00,
2013-07-26 12:22:00,75.3,60.0,30.01,SW,230,2.0,4.0,59,0.00,,,0.00,Wunderground v.1.15,2013-07-26 16:22:00,
2013-07-26 12:27:00,75.0,59.7,30.01,SSE,161,1.0,6.0,59,0.00,,,0.00,Wunderground v.1.15,2013-07-26 16:27:00,
2013-07-26 12:33:00,74.7,60.4,30.01,SSW,194,1.0,3.0,61,0.00,,,0.00,Wunderground v.1.15,2013-07-26 16:33:00,
2013-07-26 12:38:00,74.4,59.6,30.01,West,265,1.0,5.0,60,0.00,,,0.00,Wunderground v.1.15,2013-07-26 16:38:00,
2013-07-26 12:44:00,73.9,59.6,30.01,SSW,198,2.0,5.0,61,0.00,,,0.00,Wunderground v.1.15,2013-07-26 16:44:00,
2013-07-26 12:49:00,73.9,59.6,30.01,North,5,2.0,5.0,61,0.00,,,0.00,Wunderground v.1.15,2013-07-26 16:49:00,
2013-07-26 12:54:00,74.4,61.0,30.01,West,271,2.0,2.0,63,0.00,,,0.00,Wunderground v.1.15,2013-07-26 16:54:00,
2013-07-26 12:59:00,74.6,59.3,30.00,SE,139,2.0,6.0,59,0.00,,,0.00,Wunderground v.1.15,2013-07-26 16:59:00,
2013-07-26 13:05:00,74.8,60.0,30.00,SSE,148,2.0,8.0,60,0.00,,,0.00,Wunderground v.1.15,2013-07-26 17:05:00,
2013-07-26 13:11:00,75.3,60.9,29.99,East,93,2.0,3.0,61,0.00,,,0.00,Wunderground v.1.15,2013-07-26 17:11:00,
2013-07-26 13:16:00,75.9,60.1,29.99,South,180,1.0,3.0,58,0.00,,,0.00,Wunderground v.1.15,2013-07-26 17:16:00,
2013-07-26 13:22:00,75.9,60.1,29.99,East,86,2.0,3.0,58,0.00,,,0.00,Wunderground v.1.15,2013-07-26 17:22:00,
2013-07-26 13:28:00,75.6,59.8,29.99,SSW,202,1.0,3.0,58,0.00,,,0.00,Wunderground v.1.15,2013-07-26 17:28:00,
2013-07-26 13:33:00,75.6,60.3,29.99,NW,311,1.0,2.0,59,0.00,,,0.00,Wunderground v.1.15,2013-07-26 17:33:00,
2013-07-26 13:39:00,75.6,61.2,29.99,SSE,148,1.0,3.0,61,0.00,,,0.00,Wunderground v.1.15,2013-07-26 17:39:00,
2013-07-26 13:44:00,76.1,59.3,29.98,NW,306,2.0,3.0,56,0.00,,,0.00,Wunderground v.1.15,2013-07-26 17:44:00,
2013-07-26 13:50:00,76.5,60.1,29.98,ESE,119,2.0,5.0,57,0.00,,,0.00,Wunderground v.1.15,2013-07-26 17:50:00,
2013-07-26 13:56:00,76.5,59.6,29.97,SSE,150,2.0,6.0,56,0.00,,,0.00,Wunderground v.1.15,2013-07-26 17:56:00,
2013-07-26 14:02:00,76.8,59.9,29.97,West,269,2.0,3.0,56,0.00,,,0.00,Wunderground v.1.15,2013-07-26 18:02:00,
2013-07-26 14:08:00,77.3,61.9,29.97,WSW,241,2.0,4.0,59,0.00,,,0.00,Wunderground v.1.15,2013-07-26 18:08:00,
2013-07-26 14:13:00,77.3,59.9,29.97,SSE,150,2.0,2.0,55,0.00,,,0.00,Wunderground v.1.15,2013-07-26 18:13:00,
2013-07-26 14:19:00,76.9,60.0,29.97,ESE,117,1.0,3.0,56,0.00,,,0.00,Wunderground v.1.15,2013-07-26 18:19:00,
2013-07-26 14:24:00,76.5,60.6,29.97,ENE,72,1.0,1.0,58,0.00,,,0.00,Wunderground v.1.15,2013-07-26 18:24:00,
2013-07-26 14:30:00,76.1,61.2,29.96,South,175,1.0,1.0,60,0.00,,,0.00,Wunderground v.1.15,2013-07-26 18:30:00,
2013-07-26 14:36:00,76.1,61.2,29.96,SW,223,2.0,2.0,60,0.00,,,0.00,Wunderground v.1.15,2013-07-26 18:36:00,
2013-07-26 14:41:00,76.4,60.5,29.95,SW,218,1.0,4.0,58,0.00,,,0.00,Wunderground v.1.15,2013-07-26 18:41:00,
2013-07-26 14:47:00,76.1,60.2,29.95,South,182,2.0,5.0,58,0.00,,,0.00,Wunderground v.1.15,2013-07-26 18:47:00,
2013-07-26 14:52:00,76.1,60.7,29.95,SSW,205,2.0,3.0,59,0.00,,,0.00,Wunderground v.1.15,2013-07-26 18:52:00,
2013-07-26 14:58:00,76.5,60.1,29.95,SE,140,3.0,5.0,57,0.00,,,0.00,Wunderground v.1.15,2013-07-26 18:58:00,
2013-07-26 15:04:00,76.8,59.9,29.95,NNE,17,2.0,3.0,56,0.00,,,0.00,Wunderground v.1.15,2013-07-26 19:04:00,
2013-07-26 15:09:00,77.4,61.0,29.94,WNW,302,1.0,3.0,57,0.00,,,0.00,Wunderground v.1.15,2013-07-26 19:09:00,
2013-07-26 15:14:00,78.0,60.5,29.94,WNW,286,1.0,3.0,55,0.00,,,0.00,Wunderground v.1.15,2013-07-26 19:14:00,
2013-07-26 15:20:00,78.3,60.3,29.95,East,90,2.0,2.0,54,0.00,,,0.00,Wunderground v.1.15,2013-07-26 19:20:00,
2013-07-26 15:25:00,77.7,60.2,29.94,SE,130,2.0,3.0,55,0.00,,,0.00,Wunderground v.1.15,2013-07-26 19:25:00,
2013-07-26 15:31:00,77.4,61.0,29.94,South,186,1.0,3.0,57,0.00,,,0.00,Wunderground v.1.15,2013-07-26 19:31:00,
2013-07-26 15:37:00,78.0,60.5,29.94,West,260,2.0,4.0,55,0.00,,,0.00,Wunderground v.1.15,2013-07-26 19:37:00,
2013-07-26 15:42:00,77.7,60.2,29.93,ESE,117,2.0,3.0,55,0.00,,,0.00,Wunderground v.1.15,2013-07-26 19:42:00,
2013-07-26 15:48:00,78.0,60.5,29.93,ESE,109,1.0,4.0,55,0.00,,,0.00,Wunderground v.1.15,2013-07-26 19:48:00,
2013-07-26 15:53:00,78.3,59.2,29.93,SW,236,1.0,6.0,52,0.00,,,0.00,Wunderground v.1.15,2013-07-26 19:53:00,
2013-07-26 15:59:00,78.4,59.3,29.93,SW,234,1.0,6.0,52,0.00,,,0.00,Wunderground v.1.15,2013-07-26 19:59:00,
2013-07-26 16:05:00,78.0,58.9,29.93,WSW,253,1.0,3.0,52,0.00,,,0.00,Wunderground v.1.15,2013-07-26 20:05:00,
2013-07-26 16:10:00,77.8,60.3,29.93,NW,308,1.0,2.0,55,0.00,,,0.00,Wunderground v.1.15,2013-07-26 20:10:00,
2013-07-26 16:15:00,78.2,60.7,29.93,SSW,192,1.0,4.0,55,0.00,,,0.00,Wunderground v.1.15,2013-07-26 20:15:00,
2013-07-26 16:21:00,78.0,59.5,29.93,NE,37,2.0,4.0,53,0.00,,,0.00,Wunderground v.1.15,2013-07-26 20:21:00,
2013-07-26 16:26:00,77.5,60.1,29.93,SE,129,3.0,5.0,55,0.00,,,0.00,Wunderground v.1.15,2013-07-26 20:26:00,
2013-07-26 16:32:00,77.5,59.5,29.93,South,182,2.0,2.0,54,0.00,,,0.00,Wunderground v.1.15,2013-07-26 20:32:00,
2013-07-26 16:38:00,77.4,59.5,29.93,NE,55,2.0,5.0,54,0.00,,,0.00,Wunderground v.1.15,2013-07-26 20:38:00,
2013-07-26 16:43:00,77.4,60.5,29.93,SSW,198,2.0,3.0,56,0.00,,,0.00,Wunderground v.1.15,2013-07-26 20:43:00,
2013-07-26 16:49:00,77.5,60.6,29.92,SSW,200,1.0,6.0,56,0.00,,,0.00,Wunderground v.1.15,2013-07-26 20:49:00,
2013-07-26 16:55:00,77.4,61.0,29.92,ESE,112,1.0,7.0,57,0.00,,,0.00,Wunderground v.1.15,2013-07-26 20:55:00,
2013-07-26 17:00:00,77.2,60.3,29.92,SSW,207,2.0,2.0,56,0.00,,,0.00,Wunderground v.1.15,2013-07-26 21:00:00,
2013-07-26 17:06:00,76.9,60.5,29.92,NW,320,2.0,6.0,57,0.00,,,0.00,Wunderground v.1.15,2013-07-26 21:06:00,
2013-07-26 17:11:00,76.7,59.3,29.92,South,184,2.0,7.0,55,0.00,,,0.00,Wunderground v.1.15,2013-07-26 21:11:00,
2013-07-26 17:16:00,76.6,59.7,29.92,NNE,14,2.0,7.0,56,0.00,,,0.00,Wunderground v.1.15,2013-07-26 21:16:00,
2013-07-26 17:22:00,77.0,59.6,29.91,SW,215,2.0,3.0,55,0.00,,,0.00,Wunderground v.1.15,2013-07-26 21:22:00,
2013-07-26 17:27:00,77.1,59.7,29.91,SE,136,2.0,3.0,55,0.00,,,0.00,Wunderground v.1.15,2013-07-26 21:27:00,
2013-07-26 17:33:00,77.1,59.7,29.91,SW,215,3.0,6.0,55,0.00,,,0.00,Wunderground v.1.15,2013-07-26 21:33:00,
2013-07-26 17:39:00,77.0,59.6,29.91,South,190,3.0,6.0,55,0.00,,,0.00,Wunderground v.1.15,2013-07-26 21:39:00,
2013-07-26 17:44:00,77.0,60.1,29.91,SSW,202,3.0,6.0,56,0.00,,,0.00,Wunderground v.1.15,2013-07-26 21:44:00,
2013-07-26 17:50:00,76.9,60.5,29.91,South,171,1.0,1.0,57,0.00,,,0.00,Wunderground v.1.15,2013-07-26 21:50:00,
2013-07-26 17:56:00,76.6,60.2,29.91,SE,132,1.0,3.0,57,0.00,,,0.00,Wunderground v.1.15,2013-07-26 21:56:00,
2013-07-26 18:02:00,76.0,60.2,29.91,SSE,163,2.0,3.0,58,0.00,,,0.00,Wunderground v.1.15,2013-07-26 22:02:00,
2013-07-26 18:07:00,75.5,60.2,29.91,SSW,210,2.0,4.0,59,0.00,,,0.00,Wunderground v.1.15,2013-07-26 22:07:00,
2013-07-26 18:13:00,75.3,60.0,29.91,SSE,161,2.0,7.0,59,0.00,,,0.00,Wunderground v.1.15,2013-07-26 22:13:00,
2013-07-26 18:19:00,75.3,60.5,29.91,SSE,167,2.0,7.0,60,0.00,,,0.00,Wunderground v.1.15,2013-07-26 22:19:00,
2013-07-26 18:24:00,75.1,60.7,29.91,South,171,2.0,6.0,61,0.00,,,0.00,Wunderground v.1.15,2013-07-26 22:24:00,
2013-07-26 18:30:00,75.1,60.7,29.91,WSW,251,2.0,2.0,61,0.00,,,0.00,Wunderground v.1.15,2013-07-26 22:30:00,
2013-07-26 18:36:00,74.9,60.5,29.91,West,271,2.0,3.0,61,0.00,,,0.00,Wunderground v.1.15,2013-07-26 22:36:00,
2013-07-26 18:41:00,74.7,60.4,29.91,NW,310,1.0,2.0,61,0.00,,,0.00,Wunderground v.1.15,2013-07-26 22:41:00,
2013-07-26 18:47:00,74.5,60.2,29.91,WNW,282,2.0,4.0,61,0.00,,,0.00,Wunderground v.1.15,2013-07-26 22:47:00,
2013-07-26 18:52:00,74.4,61.0,29.91,WSW,255,2.0,2.0,63,0.00,,,0.00,Wunderground v.1.15,2013-07-26 22:52:00,
2013-07-26 18:58:00,74.2,60.3,29.90,West,259,2.0,7.0,62,0.00,,,0.00,Wunderground v.1.15,2013-07-26 22:58:00,
2013-07-26 19:04:00,74.0,60.2,29.90,SSW,213,3.0,3.0,62,0.00,,,0.00,Wunderground v.1.15,2013-07-26 23:04:00,
2013-07-26 19:09:00,74.0,60.6,29.90,SSW,211,2.0,3.0,63,0.00,,,0.00,Wunderground v.1.15,2013-07-26 23:09:00,
2013-07-26 19:15:00,73.9,60.1,29.90,SSW,208,1.0,8.0,62,0.00,,,0.00,Wunderground v.1.15,2013-07-26 23:15:00,
2013-07-26 19:21:00,73.9,60.5,29.90,South,182,1.0,1.0,63,0.00,,,0.00,Wunderground v.1.15,2013-07-26 23:21:00,
2013-07-26 19:26:00,73.9,60.1,29.90,SSE,150,1.0,5.0,62,0.00,,,0.00,Wunderground v.1.15,2013-07-26 23:26:00,
2013-07-26 19:32:00,73.8,60.0,29.90,South,186,1.0,2.0,62,0.00,,,0.00,Wunderground v.1.15,2013-07-26 23:32:00,
2013-07-26 19:37:00,73.6,59.8,29.90,SSW,207,1.0,2.0,62,0.00,,,0.00,Wunderground v.1.15,2013-07-26 23:37:00,
2013-07-26 19:43:00,73.4,60.0,29.90,West,275,1.0,1.0,63,0.00,,,0.00,Wunderground v.1.15,2013-07-26 23:43:00,
2013-07-26 19:49:00,73.3,59.9,29.90,West,272,0.0,3.0,63,0.00,,,0.00,Wunderground v.1.15,2013-07-26 23:49:00,
2013-07-26 19:54:00,73.3,59.9,29.90,SSE,166,0.0,3.0,63,0.00,,,0.00,Wunderground v.1.15,2013-07-26 23:54:00,
2013-07-26 20:00:00,73.1,60.2,29.90,SSW,198,1.0,1.0,64,0.00,,,0.00,Wunderground v.1.15,2013-07-27 00:00:00,
2013-07-26 20:06:00,72.8,60.3,29.90,West,278,0.0,2.0,65,0.00,,,0.00,Wunderground v.1.15,2013-07-27 00:06:00,
2013-07-26 20:12:00,72.6,60.2,29.90,SW,215,1.0,1.0,65,0.00,,,0.00,Wunderground v.1.15,2013-07-27 00:12:00,
2013-07-26 20:17:00,72.5,60.1,29.90,SW,225,1.0,2.0,65,0.00,,,0.00,Wunderground v.1.15,2013-07-27 00:17:00,
2013-07-26 20:22:00,72.4,60.4,29.90,South,176,1.0,1.0,66,0.00,,,0.00,Wunderground v.1.15,2013-07-27 00:22:00,
2013-07-26 20:27:00,72.3,60.3,29.90,South,176,1.0,1.0,66,0.00,,,0.00,Wunderground v.1.15,2013-07-27 00:27:00,
2013-07-26 20:32:00,72.2,60.2,29.90,South,177,0.0,0.0,66,0.00,,,0.00,Wunderground v.1.15,2013-07-27 00:32:00,
2013-07-26 20:38:00,72.1,60.1,29.89,SSW,194,0.0,3.0,66,0.00,,,0.00,Wunderground v.1.15,2013-07-27 00:38:00,
2013-07-26 20:43:00,71.9,60.3,29.89,ENE,69,0.0,0.0,67,0.00,,,0.00,Wunderground v.1.15,2013-07-27 00:43:00,
2013-07-26 20:49:00,71.8,60.2,29.89,SE,130,0.0,1.0,67,0.00,,,0.00,Wunderground v.1.15,2013-07-27 00:49:00,
2013-07-26 20:54:00,71.7,60.2,29.89,SE,130,0.0,1.0,67,0.00,,,0.00,Wunderground v.1.15,2013-07-27 00:54:00,
2013-07-26 21:00:00,71.5,60.4,29.89,South,182,0.0,0.0,68,0.00,,,0.00,Wunderground v.1.15,2013-07-27 01:00:00,
2013-07-26 21:06:00,71.4,60.3,29.89,South,182,0.0,1.0,68,0.00,,,0.00,Wunderground v.1.15,2013-07-27 01:06:00,
2013-07-26 21:11:00,71.3,60.6,29.89,South,182,0.0,0.0,69,0.00,,,0.00,Wunderground v.1.15,2013-07-27 01:11:00,
2013-07-26 21:17:00,71.2,60.5,29.89,South,182,0.0,0.0,69,0.00,,,0.00,Wunderground v.1.15,2013-07-27 01:17:00,
2013-07-26 21:22:00,71.0,60.3,29.89,South,182,0.0,0.0,69,0.00,,,0.00,Wunderground v.1.15,2013-07-27 01:22:00,
2013-07-26 21:28:00,70.8,60.5,29.89,South,182,0.0,2.0,70,0.00,,,0.00,Wunderground v.1.15,2013-07-27 01:28:00,
2013-07-26 21:34:00,70.7,60.4,29.89,South,182,0.0,1.0,70,0.00,,,0.00,Wunderground v.1.15,2013-07-27 01:34:00,
2013-07-26 21:39:00,70.5,60.6,29.89,South,182,0.0,1.0,71,0.00,,,0.00,Wunderground v.1.15,2013-07-27 01:39:00,
2013-07-26 21:45:00,70.3,60.4,29.89,SSE,163,0.0,0.0,71,0.00,,,0.00,Wunderground v.1.15,2013-07-27 01:45:00,
2013-07-26 21:52:00,70.1,60.7,29.89,SSE,163,0.0,0.0,72,0.00,,,0.00,Wunderground v.1.15,2013-07-27 01:52:00,
2013-07-26 21:58:00,70.0,61.3,29.88,SSE,163,0.0,0.0,74,0.00,,,0.00,Wunderground v.1.15,2013-07-27 01:58:00,
2013-07-26 22:04:00,69.8,61.5,29.88,SSE,163,0.0,0.0,75,0.00,,,0.00,Wunderground v.1.15,2013-07-27 02:04:00,
2013-07-26 22:10:00,69.6,61.3,29.88,SSE,163,0.0,0.0,75,0.00,,,0.00,Wunderground v.1.15,2013-07-27 02:10:00,
2013-07-26 22:15:00,69.4,61.1,29.88,SSE,163,0.0,0.0,75,0.00,,,0.00,Wunderground v.1.15,2013-07-27 02:15:00,
2013-07-26 22:21:00,69.2,60.9,29.88,SSE,163,0.0,0.0,75,0.00,,,0.00,Wunderground v.1.15,2013-07-27 02:21:00,
2013-07-26 22:27:00,69.1,60.8,29.88,SSE,163,0.0,0.0,75,0.00,,,0.00,Wunderground v.1.15,2013-07-27 02:27:00,
2013-07-26 22:32:00,69.1,61.2,29.88,SSE,163,0.0,0.0,76,0.00,,,0.00,Wunderground v.1.15,2013-07-27 02:32:00,
2013-07-26 22:38:00,69.0,61.1,29.88,SSE,152,0.0,0.0,76,0.00,,,0.00,Wunderground v.1.15,2013-07-27 02:38:00,
2013-07-26 22:44:00,68.9,61.0,29.87,SSE,152,0.0,0.0,76,0.00,,,0.00,Wunderground v.1.15,2013-07-27 02:44:00,
2013-07-26 22:50:00,69.0,60.7,29.87,SSE,167,0.0,0.0,75,0.00,,,0.00,Wunderground v.1.15,2013-07-27 02:50:00,
2013-07-26 22:55:00,69.0,60.7,29.87,SSE,167,0.0,0.0,75,0.00,,,0.00,Wunderground v.1.15,2013-07-27 02:55:00,
2013-07-26 23:00:00,69.1,60.8,29.87,SSE,167,0.0,0.0,75,0.00,,,0.00,Wunderground v.1.15,2013-07-27 03:00:00,
2013-07-26 23:06:00,69.1,60.8,29.87,SSE,167,0.0,0.0,75,0.00,,,0.00,Wunderground v.1.15,2013-07-27 03:06:00,
2013-07-26 23:11:00,69.2,60.9,29.87,South,171,0.0,0.0,75,0.00,,,0.00,Wunderground v.1.15,2013-07-27 03:11:00,
2013-07-26 23:17:00,69.2,60.9,29.87,South,171,0.0,0.0,75,0.00,,,0.00,Wunderground v.1.15,2013-07-27 03:17:00,
2013-07-26 23:22:00,69.2,60.9,29.87,South,171,0.0,0.0,75,0.00,,,0.00,Wunderground v.1.15,2013-07-27 03:22:00,
2013-07-26 23:28:00,69.2,61.3,29.88,WSW,242,0.0,2.0,76,0.00,,,0.00,Wunderground v.1.15,2013-07-27 03:28:00,
2013-07-26 23:33:00,69.2,62.0,29.88,SSW,211,0.0,1.0,78,0.00,,,0.00,Wunderground v.1.15,2013-07-27 03:33:00,
2013-07-26 23:39:00,68.8,62.0,29.87,SSE,155,0.0,1.0,79,0.00,,,0.00,Wunderground v.1.15,2013-07-27 03:39:00,
2013-07-26 23:45:00,68.5,62.1,29.87,SSE,155,0.0,0.0,80,0.00,,,0.00,Wunderground v.1.15,2013-07-27 03:45:00,
2013-07-26 23:50:00,68.3,61.9,29.87,South,183,0.0,0.0,80,0.00,,,0.00,Wunderground v.1.15,2013-07-27 03:50:00,
2013-07-26 23:55:00,68.2,61.8,29.88,West,276,1.0,4.0,80,0.00,,,0.00,Wunderground v.1.15,2013-07-27 03:55:00,